ICEYE-X23 (56949 NORAD) Tracking and Keplerian Element Data

This shows tracking and keplerian element data for the satellite.

Feedback or suggestion? Click here.




ElementValue
Catalog56949
NameICEYE-X23
Epoch Orbit9156
Epoch Day35.16122158
Epoch Year2025
RAAN162.835
Inclination97.5461
Eccentricity0.000874
Argument of Perigee306.2525
Mean Anonmoly53.791
Mean Motion15.35914354
Decay Rate0.00049212
L11 56949U 23084T 25035.16122158 .00049212 00000+0 14012-2 0 9998
L22 56949 97.5461 162.8350 0008740 306.2525 53.7910 15.35914354 91560



Live tracking and technical data element details for ICEYE-X23 (NORAD 56949). ICEYE-X23 can be tracked NOW for your location showing map with azimuth and elevation plus other details from your city location.







IsCatalogInMostPopularTable: catalog: 56949, numindb: 53
Update: records affected: 1



GetName: 56949 ICEYE-X23

Hit Count: updated at: Wed, 18 Jun 2025 06:05:05 GMT